Hourly Data Report for April 29, 2016

All times are specified in Local Standard Time (LST). Add 1 hour to adjust for Daylight Saving Time where and when it is observed.

EMERSON AUTO
MANITOBA

49°00'00.000" N
97°14'15.000" W
242.00 m
5020881
71560
WEX

Download Data

Hourly Data (April 2016)
Hourly Data Report for April 29, 2016
Temp Definition
°C
Dew Point Temp Definition
°C
Rel Hum Definition
%
Wind Dir Definition
10's deg

Wind Spd Definition
km/h
Visibility Definition
km
Stn Press Definition
kPa
Hmdx Definition


Wind Chill Definition


Weather Definition


TIME
00:00 3.8 -3.1 61 3 13   99.38     LegendNANA
01:00 1.5 -1.8 78 3 7   99.39     LegendNANA
02:00 1.1 -3.1 73 3 10   99.38     LegendNANA
03:00 -0.1 -2.3 85 2 5   99.42   -2 LegendNANA
04:00 -0.8 -1.7 94 35 6   99.47   -3 LegendNANA
05:00 -0.9 -1.9 93 33 7   99.49   -3 LegendNANA
06:00 -0.3 -1.9 89 32 6   99.52   -2 LegendNANA
07:00 1.9 -1.0 81 33 4   99.54     LegendNANA
08:00 5.4 1.1 74 32 4   99.52     LegendNANA
09:00 9.2 2.2 61 32 4   99.53     LegendNANA
10:00 11.8 3.1 55 33 10   99.51     LegendNANA
11:00 13.8 0.2 39 5 9   99.51     LegendNANA
12:00 14.4 -1.3 34 8 8   99.48     LegendNANA
13:00 14.7 -0.6 35 8 8   99.42     LegendNANA
14:00 15.5 -1.6 31 5 18   99.35     LegendNANA
15:00 16.2 -1.4 30 5 18   99.28     LegendNANA
16:00 16.6 -0.6 31 6 19   99.25     LegendNANA
17:00 16.4 -0.4 32 6 17   99.30     LegendNANA
18:00 16.2 -0.7 32 6 12   99.34     LegendNANA
19:00 14.5 -1.0 34 5 15   99.37     LegendNANA
20:00 10.7 -0.7 45 6 12   99.38     LegendNANA
21:00 10.4 -0.5 47 9 7   99.41     LegendNANA
22:00 7.0 0.5 63 4 8   99.43     LegendNANA
23:00 4.0 0.0 75 3 8   99.44     LegendNANA

Notes on Data Quality.

Legend

  • E = Estimated
  • M = Missing
  • NA = Not Available
  • ‡ = Partner data that is not subject to review by the National Climate Archives
Date modified: